Hourly Weather Roundup
Issued by NWS

Home | Current Version | Previous Version | Text Only | Print | Product List | Glossary On
Versions: 1 2 3 4 5 6 7 8 9 10 11 12 13 14 15 16 17 18 19 20 21 22 23 24 25 26 27 28 29 30 31 32 33 34 35 36 37 38 39 40 41 42 43 44 45 46 47 48 49 50
000
NZUS43 KILX 250610
HWRCRS

CRS HOURLY WEATHER ROUNDUP
NATIONAL WEATHER SERVICE, LINCOLN IL
100 AM CDT SUN SEP 25 2016


CITY           SKY/WX    TMP DP  RH WIND       PRES   REMARKS
CHAMPAIGN      CLEAR     68  66  93 E7        30.10F
LAWRENCEVILLE  CLEAR     69  66  90 NE5       30.11R
PEORIA         CLEAR     73  68  84 SE7       30.08R
SPRINGFIELD    CLEAR     73  65  75 E8        30.07S
$$


CITY           SKY/WX    TMP DP  RH WIND       PRES   REMARKS
BLOOMINGTON    CLEAR     70  67  90 SE9       30.11R
DECATUR        CLEAR     69  65  86 SE5       30.09F
EFFINGHAM      CLEAR     68  68 100 E5        30.10F
FLORA          CLEAR     69  66  91 CALM      30.09S
GALESBURG      CLEAR    N/A N/A N/A E5        30.06S
JACKSONVILLE   CLEAR     74  67  76 SE6       30.05F
LACON          CLEAR     68  64  88 CALM      30.08R
LINCOLN        NOT AVBL
LITCHFIELD     CLEAR     71  64  78 SE7       30.07F

CITY           SKY/WX    TMP DP  RH WIND       PRES   REMARKS
MACOMB         CLEAR     65  64  96 CALM      30.07F FOG
MATTOON        CLEAR     70  66  87 SE6       30.09F
MOLINE         CLEAR     69  65  86 E7        30.05S
OLNEY          CLEAR     68  68 100 CALM      30.09S
PARIS          CLEAR     68  67  96 CALM      30.12S
PONTIAC        CLEAR     70  68  94 SE7       30.11R
QUINCY         CLEAR     72  66  81 SE8       30.04F
RANTOUL          N/A     70  67  92 E3        30.11S FOG
ROBINSON       CLEAR     63  63  99 CALM      30.11S FOG
TAYLORVILLE    CLEAR     69  64  86 SE7       30.08S
TERRE HAUTE    CLEAR     67  64  90 E5        30.12R
$$


CITY           SKY/WX    TMP DP  RH WIND       PRES   REMARKS
BURLINGTON     CLEAR     68  68 100 SE5       30.04S
CHICAGO        CLEAR     68  63  84 E7        30.12S
DES MOINES     LGT RAIN  70  69  97 SE10      30.00S
EVANSVILLE     CLEAR     71  65  81 CALM      30.09R
INDIANAPOLIS   CLEAR     70  63  78 E8        30.13R
KANSAS CITY    RAIN      69  66  90 SE3       30.02S
MILWAUKEE      CLEAR     66  61  84 SE7       30.13F
ST LOUIS       CLEAR     76  67  73 SE7       30.07S
$$





USA.gov is the U.S. government's official web portal to all federal, state and local government web resources and services.